owner,sensor,date,latitude,longitude,vertical_datum,sea_water_practical_salinity,qcFlag 
ENP,ioos.station.NOAA.NDBC:LBRF1:1,2017-02-01T00:00:00Z,25.4840,-81.1330,1.5,18.56,1111122 
ENP,ioos.station.NOAA.NDBC:LBRF1:1,2017-02-01T01:00:00Z,25.4840,-81.1330,1.5,14.2,1111122 
ENP,ioos.station.NOAA.NDBC:LBRF1:1,2017-02-01T03:00:00Z,25.4840,-81.1330,1.5,9.3,11111222 
ENP,ioos.station.NOAA.NDBC:LBRF1:1,2017-02-01T04:00:00Z,25.4840,-81.1330,1.5,8.96,1111122 
ENP,ioos.station.NOAA.NDBC:LBRF1:1,2017-02-01T06:00:00Z,25.4840,-81.1330,1.5,8.1,11111222 
ENP,ioos.station.NOAA.NDBC:LBRF1:1,2017-02-01T07:00:00Z,25.4840,-81.1330,1.5,8.33,1111122 
ENP,ioos.station.NOAA.NDBC:LBRF1:1,2017-02-01T08:00:00Z,25.4840,-81.1330,1.5,9.46,1111122 
ENP,ioos.station.NOAA.NDBC:LBRF1:1,2017-02-01T09:00:00Z,25.4840,-81.1330,1.5,13.41,1111122 
ENP,ioos.station.NOAA.NDBC:LBRF1:1,2017-02-01T10:00:00Z,25.4840,-81.1330,1.5,20.61,1111122 
ENP,ioos.station.NOAA.NDBC:LBRF1:1,2017-02-01T11:00:00Z,25.4840,-81.1330,1.5,20.8,11111222 
ENP,ioos.station.NOAA.NDBC:LBRF1:1,2017-02-01T12:00:00Z,25.4840,-81.1330,1.5,19.2,11111222 
ENP,ioos.station.NOAA.NDBC:LBRF1:1,2017-02-01T13:00:00Z,25.4840,-81.1330,1.5,16.1,11111222 
ENP,ioos.station.NOAA.NDBC:LBRF1:1,2017-02-01T14:00:00Z,25.4840,-81.1330,1.5,11.8,11111222 
ENP,ioos.station.NOAA.NDBC:LBRF1:1,2017-02-01T15:00:00Z,25.4840,-81.1330,1.5,9.34,1111122 
ENP,ioos.station.NOAA.NDBC:LBRF1:1,2017-02-01T16:00:00Z,25.4840,-81.1330,1.5,8.7,1111122 
ENP,ioos.station.NOAA.NDBC:LBRF1:1,2017-02-01T17:00:00Z,25.4840,-81.1330,1.5,7.94,1111122 
ENP,ioos.station.NOAA.NDBC:LBRF1:1,2017-02-01T18:00:00Z,25.4840,-81.1330,1.5,7.69,1111122 
ENP,ioos.station.NOAA.NDBC:LBRF1:1,2017-02-01T19:00:00Z,25.4840,-81.1330,1.5,7.8,11111222 
ENP,ioos.station.NOAA.NDBC:LBRF1:1,2017-02-01T20:00:00Z,25.4840,-81.1330,1.5,9.0,11111222 
ENP,ioos.station.NOAA.NDBC:LBRF1:1,2017-02-01T21:00:00Z,25.4840,-81.1330,1.5,12.69,1111122 
ENP,ioos.station.NOAA.NDBC:LBRF1:1,2017-02-01T22:00:00Z,25.4840,-81.1330,1.5,19.04,1111122 
ENP,ioos.station.NOAA.NDBC:LBRF1:1,2017-02-01T23:00:00Z,25.4840,-81.1330,1.5,21.37,1111122 
ENP,ioos.station.NOAA.NDBC:LBRF1:1,2017-02-02T00:00:00Z,25.4840,-81.1330,1.5,22.62,1111122 
ENP,ioos.station.NOAA.NDBC:LBRF1:1,2017-02-02T01:00:00Z,25.4840,-81.1330,1.5,21.2,11111222 
ENP,ioos.station.NOAA.NDBC:LBRF1:1,2017-02-02T03:00:00Z,25.4840,-81.1330,1.5,15.5,11111222 
ENP,ioos.station.NOAA.NDBC:LBRF1:1,2017-02-02T04:00:00Z,25.4840,-81.1330,1.5,10.36,1111122 
ENP,ioos.station.NOAA.NDBC:LBRF1:1,2017-02-02T05:00:00Z,25.4840,-81.1330,1.5,9.0,11111222 
ENP,ioos.station.NOAA.NDBC:LBRF1:1,2017-02-02T06:00:00Z,25.4840,-81.1330,1.5,8.18,1111122 
ENP,ioos.station.NOAA.NDBC:LBRF1:1,2017-02-02T07:00:00Z,25.4840,-81.1330,1.5,8.01,1111122 
ENP,ioos.station.NOAA.NDBC:LBRF1:1,2017-02-02T08:00:00Z,25.4840,-81.1330,1.5,8.35,1111122 
ENP,ioos.station.NOAA.NDBC:LBRF1:1,2017-02-02T09:00:00Z,25.4840,-81.1330,1.5,10.42,1111122 
ENP,ioos.station.NOAA.NDBC:LBRF1:1,2017-02-02T10:00:00Z,25.4840,-81.1330,1.5,16.3,11111222 
ENP,ioos.station.NOAA.NDBC:LBRF1:1,2017-02-02T11:00:00Z,25.4840,-81.1330,1.5,19.99,1111122 
ENP,ioos.station.NOAA.NDBC:LBRF1:1,2017-02-02T12:00:00Z,25.4840,-81.1330,1.5,21.37,1111122 
ENP,ioos.station.NOAA.NDBC:LBRF1:1,2017-02-02T13:00:00Z,25.4840,-81.1330,1.5,20.2,1111122 
ENP,ioos.station.NOAA.NDBC:LBRF1:1,2017-02-02T14:00:00Z,25.4840,-81.1330,1.5,16.73,1111122 
ENP,ioos.station.NOAA.NDBC:LBRF1:1,2017-02-02T15:00:00Z,25.4840,-81.1330,1.5,11.97,1111122 
ENP,ioos.station.NOAA.NDBC:LBRF1:1,2017-02-02T16:00:00Z,25.4840,-81.1330,1.5,9.21,1111122 
ENP,ioos.station.NOAA.NDBC:LBRF1:1,2017-02-02T17:00:00Z,25.4840,-81.1330,1.5,8.45,1111122 
ENP,ioos.station.NOAA.NDBC:LBRF1:1,2017-02-02T18:00:00Z,25.4840,-81.1330,1.5,7.7,11111222 
ENP,ioos.station.NOAA.NDBC:LBRF1:1,2017-02-02T19:00:00Z,25.4840,-81.1330,1.5,7.5,1111122 
ENP,ioos.station.NOAA.NDBC:LBRF1:1,2017-02-02T20:00:00Z,25.4840,-81.1330,1.5,7.91,1111122 
ENP,ioos.station.NOAA.NDBC:LBRF1:1,2017-02-02T21:00:00Z,25.4840,-81.1330,1.5,9.65,1111122 
ENP,ioos.station.NOAA.NDBC:LBRF1:1,2017-02-02T22:00:00Z,25.4840,-81.1330,1.5,16.13,1111122 
ENP,ioos.station.NOAA.NDBC:LBRF1:1,2017-02-02T23:00:00Z,25.4840,-81.1330,1.5,21.1,1111122 
ENP,ioos.station.NOAA.NDBC:LBRF1:1,2017-02-03T00:00:00Z,25.4840,-81.1330,1.5,22.2,11111222 
ENP,ioos.station.NOAA.NDBC:LBRF1:1,2017-02-03T01:00:00Z,25.4840,-81.1330,1.5,23.95,1111122 
ENP,ioos.station.NOAA.NDBC:LBRF1:1,2017-02-03T02:00:00Z,25.4840,-81.1330,1.5,22.3,11111222 
ENP,ioos.station.NOAA.NDBC:LBRF1:1,2017-02-03T03:00:00Z,25.4840,-81.1330,1.5,19.52,1111122 
ENP,ioos.station.NOAA.NDBC:LBRF1:1,2017-02-03T04:00:00Z,25.4840,-81.1330,1.5,15.5,11111222 
ENP,ioos.station.NOAA.NDBC:LBRF1:1,2017-02-03T05:00:00Z,25.4840,-81.1330,1.5,10.3,11111222 
ENP,ioos.station.NOAA.NDBC:LBRF1:1,2017-02-03T06:00:00Z,25.4840,-81.1330,1.5,8.58,1111122 
ENP,ioos.station.NOAA.NDBC:LBRF1:1,2017-02-03T07:00:00Z,25.4840,-81.1330,1.5,7.9,11111222 
ENP,ioos.station.NOAA.NDBC:LBRF1:1,2017-02-03T08:00:00Z,25.4840,-81.1330,1.5,7.6,11111222 
ENP,ioos.station.NOAA.NDBC:LBRF1:1,2017-02-03T09:00:00Z,25.4840,-81.1330,1.5,7.8,1111122 
ENP,ioos.station.NOAA.NDBC:LBRF1:1,2017-02-03T10:00:00Z,25.4840,-81.1330,1.5,8.64,1111122 
ENP,ioos.station.NOAA.NDBC:LBRF1:1,2017-02-03T11:00:00Z,25.4840,-81.1330,1.5,13.0,11111222 
ENP,ioos.station.NOAA.NDBC:LBRF1:1,2017-02-03T12:00:00Z,25.4840,-81.1330,1.5,18.5,11111222 
ENP,ioos.station.NOAA.NDBC:LBRF1:1,2017-02-03T13:00:00Z,25.4840,-81.1330,1.5,20.5,11111222 
ENP,ioos.station.NOAA.NDBC:LBRF1:1,2017-02-03T14:00:00Z,25.4840,-81.1330,1.5,20.1,11111222 
ENP,ioos.station.NOAA.NDBC:LBRF1:1,2017-02-03T15:00:00Z,25.4840,-81.1330,1.5,15.6,11111222 
ENP,ioos.station.NOAA.NDBC:LBRF1:1,2017-02-03T16:00:00Z,25.4840,-81.1330,1.5,11.5,11111222 
ENP,ioos.station.NOAA.NDBC:LBRF1:1,2017-02-03T17:00:00Z,25.4840,-81.1330,1.5,8.7,11111222 
ENP,ioos.station.NOAA.NDBC:LBRF1:1,2017-02-03T18:00:00Z,25.4840,-81.1330,1.5,8.0,11111222 
ENP,ioos.station.NOAA.NDBC:LBRF1:1,2017-02-03T19:00:00Z,25.4840,-81.1330,1.5,7.7,11111222 
ENP,ioos.station.NOAA.NDBC:LBRF1:1,2017-02-03T20:00:00Z,25.4840,-81.1330,1.5,7.6,11111222 
ENP,ioos.station.NOAA.NDBC:LBRF1:1,2017-02-03T21:00:00Z,25.4840,-81.1330,1.5,8.19,1111122 
ENP,ioos.station.NOAA.NDBC:LBRF1:1,2017-02-03T22:00:00Z,25.4840,-81.1330,1.5,13.08,1111122 
ENP,ioos.station.NOAA.NDBC:LBRF1:1,2017-02-03T23:00:00Z,25.4840,-81.1330,1.5,19.52,1111122 
ENP,ioos.station.NOAA.NDBC:LBRF1:1,2017-02-04T00:00:00Z,25.4840,-81.1330,1.5,23.81,1111122 
ENP,ioos.station.NOAA.NDBC:LBRF1:1,2017-02-04T01:00:00Z,25.4840,-81.1330,1.5,25.42,1111122 
ENP,ioos.station.NOAA.NDBC:LBRF1:1,2017-02-04T02:00:00Z,25.4840,-81.1330,1.5,25.4,11111222 
ENP,ioos.station.NOAA.NDBC:LBRF1:1,2017-02-04T03:00:00Z,25.4840,-81.1330,1.5,24.5,11111222 
ENP,ioos.station.NOAA.NDBC:LBRF1:1,2017-02-04T04:00:00Z,25.4840,-81.1330,1.5,21.0,11111222 
ENP,ioos.station.NOAA.NDBC:LBRF1:1,2017-02-04T05:00:00Z,25.4840,-81.1330,1.5,17.68,1111122 
ENP,ioos.station.NOAA.NDBC:LBRF1:1,2017-02-04T06:00:00Z,25.4840,-81.1330,1.5,12.6,11111222 
ENP,ioos.station.NOAA.NDBC:LBRF1:1,2017-02-04T07:00:00Z,25.4840,-81.1330,1.5,8.8,11111222 
ENP,ioos.station.NOAA.NDBC:LBRF1:1,2017-02-04T08:00:00Z,25.4840,-81.1330,1.5,7.9,11111222 
ENP,ioos.station.NOAA.NDBC:LBRF1:1,2017-02-04T09:00:00Z,25.4840,-81.1330,1.5,7.42,1111122 
ENP,ioos.station.NOAA.NDBC:LBRF1:1,2017-02-04T10:00:00Z,25.4840,-81.1330,1.5,7.2,11111222 
ENP,ioos.station.NOAA.NDBC:LBRF1:1,2017-02-04T11:00:00Z,25.4840,-81.1330,1.5,7.4,1111122 
ENP,ioos.station.NOAA.NDBC:LBRF1:1,2017-02-04T12:00:00Z,25.4840,-81.1330,1.5,7.98,1111122 
ENP,ioos.station.NOAA.NDBC:LBRF1:1,2017-02-04T13:00:00Z,25.4840,-81.1330,1.5,9.65,1111122 
ENP,ioos.station.NOAA.NDBC:LBRF1:1,2017-02-04T14:00:00Z,25.4840,-81.1330,1.5,12.49,1111122 
ENP,ioos.station.NOAA.NDBC:LBRF1:1,2017-02-04T15:00:00Z,25.4840,-81.1330,1.5,10.55,1111122 
ENP,ioos.station.NOAA.NDBC:LBRF1:1,2017-02-04T16:00:00Z,25.4840,-81.1330,1.5,8.18,1111122 
ENP,ioos.station.NOAA.NDBC:LBRF1:1,2017-02-04T17:00:00Z,25.4840,-81.1330,1.5,7.59,1111122 
ENP,ioos.station.NOAA.NDBC:LBRF1:1,2017-02-04T18:00:00Z,25.4840,-81.1330,1.5,7.14,1111122 
ENP,ioos.station.NOAA.NDBC:LBRF1:1,2017-02-04T19:00:00Z,25.4840,-81.1330,1.5,6.73,1111122 
ENP,ioos.station.NOAA.NDBC:LBRF1:1,2017-02-04T20:00:00Z,25.4840,-81.1330,1.5,6.51,1111122 
ENP,ioos.station.NOAA.NDBC:LBRF1:1,2017-02-04T21:00:00Z,25.4840,-81.1330,1.5,6.6,11111222 
ENP,ioos.station.NOAA.NDBC:LBRF1:1,2017-02-04T22:00:00Z,25.4840,-81.1330,1.5,11.9,11111222 
ENP,ioos.station.NOAA.NDBC:LBRF1:1,2017-02-04T23:00:00Z,25.4840,-81.1330,1.5,12.8,11111222 
ENP,ioos.station.NOAA.NDBC:LBRF1:1,2017-02-05T00:00:00Z,25.4840,-81.1330,1.5,18.22,1111122 
ENP,ioos.station.NOAA.NDBC:LBRF1:1,2017-02-05T01:00:00Z,25.4840,-81.1330,1.5,22.13,1111122 
ENP,ioos.station.NOAA.NDBC:LBRF1:1,2017-02-05T02:00:00Z,25.4840,-81.1330,1.5,24.37,1111122 
ENP,ioos.station.NOAA.NDBC:LBRF1:1,2017-02-05T03:00:00Z,25.4840,-81.1330,1.5,25.2,11111222 
ENP,ioos.station.NOAA.NDBC:LBRF1:1,2017-02-05T04:00:00Z,25.4840,-81.1330,1.5,23.8,11111222 
ENP,ioos.station.NOAA.NDBC:LBRF1:1,2017-02-05T05:00:00Z,25.4840,-81.1330,1.5,21.8,11111222 
ENP,ioos.station.NOAA.NDBC:LBRF1:1,2017-02-05T06:00:00Z,25.4840,-81.1330,1.5,18.9,1111122 
ENP,ioos.station.NOAA.NDBC:LBRF1:1,2017-02-05T07:00:00Z,25.4840,-81.1330,1.5,14.9,11111222 
ENP,ioos.station.NOAA.NDBC:LBRF1:1,2017-02-05T08:00:00Z,25.4840,-81.1330,1.5,11.1,11111222 
ENP,ioos.station.NOAA.NDBC:LBRF1:1,2017-02-05T09:00:00Z,25.4840,-81.1330,1.5,8.4,11111222 
ENP,ioos.station.NOAA.NDBC:LBRF1:1,2017-02-05T10:00:00Z,25.4840,-81.1330,1.5,7.6,11111222 
ENP,ioos.station.NOAA.NDBC:LBRF1:1,2017-02-05T11:00:00Z,25.4840,-81.1330,1.5,7.46,1111122 
ENP,ioos.station.NOAA.NDBC:LBRF1:1,2017-02-05T12:00:00Z,25.4840,-81.1330,1.5,8.1,11111222 
ENP,ioos.station.NOAA.NDBC:LBRF1:1,2017-02-05T13:00:00Z,25.4840,-81.1330,1.5,11.5,11111222 
ENP,ioos.station.NOAA.NDBC:LBRF1:1,2017-02-05T14:00:00Z,25.4840,-81.1330,1.5,16.6,11111222 
ENP,ioos.station.NOAA.NDBC:LBRF1:1,2017-02-05T15:00:00Z,25.4840,-81.1330,1.5,21.0,11111222 
ENP,ioos.station.NOAA.NDBC:LBRF1:1,2017-02-05T16:00:00Z,25.4840,-81.1330,1.5,22.48,1111122 
ENP,ioos.station.NOAA.NDBC:LBRF1:1,2017-02-05T17:00:00Z,25.4840,-81.1330,1.5,22.27,1111122 
ENP,ioos.station.NOAA.NDBC:LBRF1:1,2017-02-05T18:00:00Z,25.4840,-81.1330,1.5,18.63,1111122 
ENP,ioos.station.NOAA.NDBC:LBRF1:1,2017-02-05T19:00:00Z,25.4840,-81.1330,1.5,14.93,1111122 
ENP,ioos.station.NOAA.NDBC:LBRF1:1,2017-02-05T20:00:00Z,25.4840,-81.1330,1.5,12.17,1111122 
ENP,ioos.station.NOAA.NDBC:LBRF1:1,2017-02-05T21:00:00Z,25.4840,-81.1330,1.5,10.0,11111222 
ENP,ioos.station.NOAA.NDBC:LBRF1:1,2017-02-05T22:00:00Z,25.4840,-81.1330,1.5,11.7,11111222 
ENP,ioos.station.NOAA.NDBC:LBRF1:1,2017-02-05T23:00:00Z,25.4840,-81.1330,1.5,17.1,11111222 
ENP,ioos.station.NOAA.NDBC:LBRF1:1,2017-02-06T00:00:00Z,25.4840,-81.1330,1.5,19.6,11111222 
ENP,ioos.station.NOAA.NDBC:LBRF1:1,2017-02-06T01:00:00Z,25.4840,-81.1330,1.5,23.2,11111222 
ENP,ioos.station.NOAA.NDBC:LBRF1:1,2017-02-06T02:00:00Z,25.4840,-81.1330,1.5,25.3,11111222 
ENP,ioos.station.NOAA.NDBC:LBRF1:1,2017-02-06T03:00:00Z,25.4840,-81.1330,1.5,26.34,1111122 
ENP,ioos.station.NOAA.NDBC:LBRF1:1,2017-02-06T04:00:00Z,25.4840,-81.1330,1.5,26.84,1111122 
ENP,ioos.station.NOAA.NDBC:LBRF1:1,2017-02-06T05:00:00Z,25.4840,-81.1330,1.5,26.1,11111222 
ENP,ioos.station.NOAA.NDBC:LBRF1:1,2017-02-06T06:00:00Z,25.4840,-81.1330,1.5,24.58,1111122 
ENP,ioos.station.NOAA.NDBC:LBRF1:1,2017-02-06T07:00:00Z,25.4840,-81.1330,1.5,22.76,1111122 
ENP,ioos.station.NOAA.NDBC:LBRF1:1,2017-02-06T08:00:00Z,25.4840,-81.1330,1.5,18.83,1111122 
ENP,ioos.station.NOAA.NDBC:LBRF1:1,2017-02-06T09:00:00Z,25.4840,-81.1330,1.5,13.61,1111122 
ENP,ioos.station.NOAA.NDBC:LBRF1:1,2017-02-06T10:00:00Z,25.4840,-81.1330,1.5,9.97,1111122 
ENP,ioos.station.NOAA.NDBC:LBRF1:1,2017-02-06T11:00:00Z,25.4840,-81.1330,1.5,8.1,11111222 
ENP,ioos.station.NOAA.NDBC:LBRF1:1,2017-02-06T12:00:00Z,25.4840,-81.1330,1.5,7.5,11111222 
ENP,ioos.station.NOAA.NDBC:LBRF1:1,2017-02-06T13:00:00Z,25.4840,-81.1330,1.5,7.57,1111122 
ENP,ioos.station.NOAA.NDBC:LBRF1:1,2017-02-06T14:00:00Z,25.4840,-81.1330,1.5,8.5,11111222 
ENP,ioos.station.NOAA.NDBC:LBRF1:1,2017-02-06T15:00:00Z,25.4840,-81.1330,1.5,13.2,11111222 
ENP,ioos.station.NOAA.NDBC:LBRF1:1,2017-02-06T16:00:00Z,25.4840,-81.1330,1.5,19.2,11111222 
ENP,ioos.station.NOAA.NDBC:LBRF1:1,2017-02-06T17:00:00Z,25.4840,-81.1330,1.5,21.9,11111222 
ENP,ioos.station.NOAA.NDBC:LBRF1:1,2017-02-06T18:00:00Z,25.4840,-81.1330,1.5,22.9,11111222 
ENP,ioos.station.NOAA.NDBC:LBRF1:1,2017-02-06T19:00:00Z,25.4840,-81.1330,1.5,21.9,11111222 
ENP,ioos.station.NOAA.NDBC:LBRF1:1,2017-02-06T20:00:00Z,25.4840,-81.1330,1.5,16.7,11111222 
ENP,ioos.station.NOAA.NDBC:LBRF1:1,2017-02-06T21:00:00Z,25.4840,-81.1330,1.5,12.6,11111222 
ENP,ioos.station.NOAA.NDBC:LBRF1:1,2017-02-06T22:00:00Z,25.4840,-81.1330,1.5,9.8,11111222 
ENP,ioos.station.NOAA.NDBC:LBRF1:1,2017-02-06T23:00:00Z,25.4840,-81.1330,1.5,9.7,11111222 
ENP,ioos.station.NOAA.NDBC:LBRF1:1,2017-02-07T00:00:00Z,25.4840,-81.1330,1.5,16.7,11111222 
ENP,ioos.station.NOAA.NDBC:LBRF1:1,2017-02-07T01:00:00Z,25.4840,-81.1330,1.5,21.2,11111222 
ENP,ioos.station.NOAA.NDBC:LBRF1:1,2017-02-07T03:00:00Z,25.4840,-81.1330,1.5,26.2,11111222 
ENP,ioos.station.NOAA.NDBC:LBRF1:1,2017-02-07T04:00:00Z,25.4840,-81.1330,1.5,27.8,11111222 
ENP,ioos.station.NOAA.NDBC:LBRF1:1,2017-02-07T05:00:00Z,25.4840,-81.1330,1.5,28.1,11111222 
ENP,ioos.station.NOAA.NDBC:LBRF1:1,2017-02-07T06:00:00Z,25.4840,-81.1330,1.5,28.12,1111122 
ENP,ioos.station.NOAA.NDBC:LBRF1:1,2017-02-07T07:00:00Z,25.4840,-81.1330,1.5,26.6,11111222 
ENP,ioos.station.NOAA.NDBC:LBRF1:1,2017-02-07T08:00:00Z,25.4840,-81.1330,1.5,24.65,1111122 
ENP,ioos.station.NOAA.NDBC:LBRF1:1,2017-02-07T09:00:00Z,25.4840,-81.1330,1.5,21.5,11111222 
ENP,ioos.station.NOAA.NDBC:LBRF1:1,2017-02-07T10:00:00Z,25.4840,-81.1330,1.5,16.67,1111122 
ENP,ioos.station.NOAA.NDBC:LBRF1:1,2017-02-07T11:00:00Z,25.4840,-81.1330,1.5,12.4,11111222 
ENP,ioos.station.NOAA.NDBC:LBRF1:1,2017-02-07T12:00:00Z,25.4840,-81.1330,1.5,9.6,11111222 
ENP,ioos.station.NOAA.NDBC:LBRF1:1,2017-02-07T13:00:00Z,25.4840,-81.1330,1.5,8.5,11111222 
ENP,ioos.station.NOAA.NDBC:LBRF1:1,2017-02-07T14:00:00Z,25.4840,-81.1330,1.5,9.1,11111222 
ENP,ioos.station.NOAA.NDBC:LBRF1:1,2017-02-07T15:00:00Z,25.4840,-81.1330,1.5,12.2,11111222 
ENP,ioos.station.NOAA.NDBC:LBRF1:1,2017-02-07T16:00:00Z,25.4840,-81.1330,1.5,18.8,11111222 
ENP,ioos.station.NOAA.NDBC:LBRF1:1,2017-02-07T17:00:00Z,25.4840,-81.1330,1.5,24.16,1111122 
ENP,ioos.station.NOAA.NDBC:LBRF1:1,2017-02-07T18:00:00Z,25.4840,-81.1330,1.5,25.6,11111222 
ENP,ioos.station.NOAA.NDBC:LBRF1:1,2017-02-07T19:00:00Z,25.4840,-81.1330,1.5,25.92,1111122 
ENP,ioos.station.NOAA.NDBC:LBRF1:1,2017-02-07T20:00:00Z,25.4840,-81.1330,1.5,24.9,11111222 
ENP,ioos.station.NOAA.NDBC:LBRF1:1,2017-02-07T21:00:00Z,25.4840,-81.1330,1.5,22.41,1111122 
ENP,ioos.station.NOAA.NDBC:LBRF1:1,2017-02-07T22:00:00Z,25.4840,-81.1330,1.5,18.4,11111222 
ENP,ioos.station.NOAA.NDBC:LBRF1:1,2017-02-07T23:00:00Z,25.4840,-81.1330,1.5,13.47,1111122 
ENP,ioos.station.NOAA.NDBC:LBRF1:1,2017-02-08T00:00:00Z,25.4840,-81.1330,1.5,11.32,1111122 
ENP,ioos.station.NOAA.NDBC:LBRF1:1,2017-02-08T01:00:00Z,25.4840,-81.1330,1.5,13.5,11111222 
ENP,ioos.station.NOAA.NDBC:LBRF1:1,2017-02-08T03:00:00Z,25.4840,-81.1330,1.5,24.7,11111222 
ENP,ioos.station.NOAA.NDBC:LBRF1:1,2017-02-08T04:00:00Z,25.4840,-81.1330,1.5,27.12,1111122 
ENP,ioos.station.NOAA.NDBC:LBRF1:1,2017-02-08T05:00:00Z,25.4840,-81.1330,1.5,28.7,11111222 
ENP,ioos.station.NOAA.NDBC:LBRF1:1,2017-02-08T06:00:00Z,25.4840,-81.1330,1.5,29.13,1111122 
ENP,ioos.station.NOAA.NDBC:LBRF1:1,2017-02-08T07:00:00Z,25.4840,-81.1330,1.5,29.2,11111222 
ENP,ioos.station.NOAA.NDBC:LBRF1:1,2017-02-08T08:00:00Z,25.4840,-81.1330,1.5,28.6,11111222 
ENP,ioos.station.NOAA.NDBC:LBRF1:1,2017-02-08T09:00:00Z,25.4840,-81.1330,1.5,27.4,11111222 
ENP,ioos.station.NOAA.NDBC:LBRF1:1,2017-02-08T10:00:00Z,25.4840,-81.1330,1.5,26.2,1111122 
ENP,ioos.station.NOAA.NDBC:LBRF1:1,2017-02-08T11:00:00Z,25.4840,-81.1330,1.5,23.0,11111222 
ENP,ioos.station.NOAA.NDBC:LBRF1:1,2017-02-08T12:00:00Z,25.4840,-81.1330,1.5,17.1,11111222 
ENP,ioos.station.NOAA.NDBC:LBRF1:1,2017-02-08T13:00:00Z,25.4840,-81.1330,1.5,13.2,11111222 
ENP,ioos.station.NOAA.NDBC:LBRF1:1,2017-02-08T14:00:00Z,25.4840,-81.1330,1.5,11.84,1111122 
ENP,ioos.station.NOAA.NDBC:LBRF1:1,2017-02-08T15:00:00Z,25.4840,-81.1330,1.5,13.6,11111222 
ENP,ioos.station.NOAA.NDBC:LBRF1:1,2017-02-08T16:00:00Z,25.4840,-81.1330,1.5,19.7,11111222 
ENP,ioos.station.NOAA.NDBC:LBRF1:1,2017-02-08T17:00:00Z,25.4840,-81.1330,1.5,26.91,1111122 
ENP,ioos.station.NOAA.NDBC:LBRF1:1,2017-02-08T18:00:00Z,25.4840,-81.1330,1.5,28.1,11111222 
ENP,ioos.station.NOAA.NDBC:LBRF1:1,2017-02-09T08:00:00Z,25.4840,-81.1330,1.5,29.9,11111222 
ENP,ioos.station.NOAA.NDBC:LBRF1:1,2017-02-09T09:00:00Z,25.4840,-81.1330,1.5,29.34,1111122 
ENP,ioos.station.NOAA.NDBC:LBRF1:1,2017-02-09T10:00:00Z,25.4840,-81.1330,1.5,28.2,11111222 
ENP,ioos.station.NOAA.NDBC:LBRF1:1,2017-02-09T11:00:00Z,25.4840,-81.1330,1.5,27.27,1111122 
ENP,ioos.station.NOAA.NDBC:LBRF1:1,2017-02-09T12:00:00Z,25.4840,-81.1330,1.5,23.81,1111122 
ENP,ioos.station.NOAA.NDBC:LBRF1:1,2017-02-09T13:00:00Z,25.4840,-81.1330,1.5,18.7,11111222 
ENP,ioos.station.NOAA.NDBC:LBRF1:1,2017-02-09T14:00:00Z,25.4840,-81.1330,1.5,14.9,11111222 
ENP,ioos.station.NOAA.NDBC:LBRF1:1,2017-02-09T15:00:00Z,25.4840,-81.1330,1.5,13.3,11111222 
ENP,ioos.station.NOAA.NDBC:LBRF1:1,2017-02-09T16:00:00Z,25.4840,-81.1330,1.5,14.9,11111222 
ENP,ioos.station.NOAA.NDBC:LBRF1:1,2017-02-09T17:00:00Z,25.4840,-81.1330,1.5,20.89,1111122 
ENP,ioos.station.NOAA.NDBC:LBRF1:1,2017-02-09T18:00:00Z,25.4840,-81.1330,1.5,27.6,11111222 
ENP,ioos.station.NOAA.NDBC:LBRF1:1,2017-02-09T19:00:00Z,25.4840,-81.1330,1.5,28.5,11111222 
ENP,ioos.station.NOAA.NDBC:LBRF1:1,2017-02-09T20:00:00Z,25.4840,-81.1330,1.5,28.8,11111222 
ENP,ioos.station.NOAA.NDBC:LBRF1:1,2017-02-09T21:00:00Z,25.4840,-81.1330,1.5,28.7,1111122 
ENP,ioos.station.NOAA.NDBC:LBRF1:1,2017-02-09T22:00:00Z,25.4840,-81.1330,1.5,28.1,11111222 
ENP,ioos.station.NOAA.NDBC:LBRF1:1,2017-02-09T23:00:00Z,25.4840,-81.1330,1.5,26.7,11111222 
ENP,ioos.station.NOAA.NDBC:LBRF1:1,2017-02-10T00:00:00Z,25.4840,-81.1330,1.5,23.74,1111122 
ENP,ioos.station.NOAA.NDBC:LBRF1:1,2017-02-10T01:00:00Z,25.4840,-81.1330,1.5,17.81,1111122 
ENP,ioos.station.NOAA.NDBC:LBRF1:1,2017-02-10T03:00:00Z,25.4840,-81.1330,1.5,15.5,11111222 
ENP,ioos.station.NOAA.NDBC:LBRF1:1,2017-02-10T04:00:00Z,25.4840,-81.1330,1.5,22.41,1111122 
ENP,ioos.station.NOAA.NDBC:LBRF1:1,2017-02-10T05:00:00Z,25.4840,-81.1330,1.5,26.7,11111222 
ENP,ioos.station.NOAA.NDBC:LBRF1:1,2017-02-10T06:00:00Z,25.4840,-81.1330,1.5,28.55,1111122 
ENP,ioos.station.NOAA.NDBC:LBRF1:1,2017-02-10T07:00:00Z,25.4840,-81.1330,1.5,29.92,1111122 
ENP,ioos.station.NOAA.NDBC:LBRF1:1,2017-02-10T08:00:00Z,25.4840,-81.1330,1.5,19.9,11111222 
ENP,ioos.station.NOAA.NDBC:LBRF1:1,2017-02-10T09:00:00Z,25.4840,-81.1330,1.5,29.34,1111122 
ENP,ioos.station.NOAA.NDBC:LBRF1:1,2017-02-10T10:00:00Z,25.4840,-81.1330,1.5,27.6,11111222 
ENP,ioos.station.NOAA.NDBC:LBRF1:1,2017-02-10T11:00:00Z,25.4840,-81.1330,1.5,25.99,1111122 
ENP,ioos.station.NOAA.NDBC:LBRF1:1,2017-02-10T12:00:00Z,25.4840,-81.1330,1.5,20.68,1111122 
ENP,ioos.station.NOAA.NDBC:LBRF1:1,2017-02-10T13:00:00Z,25.4840,-81.1330,1.5,14.93,1111122 
ENP,ioos.station.NOAA.NDBC:LBRF1:1,2017-02-10T14:00:00Z,25.4840,-81.1330,1.5,12.49,1111122 
ENP,ioos.station.NOAA.NDBC:LBRF1:1,2017-02-10T15:00:00Z,25.4840,-81.1330,1.5,11.19,1111122 
ENP,ioos.station.NOAA.NDBC:LBRF1:1,2017-02-10T16:00:00Z,25.4840,-81.1330,1.5,10.36,1111122 
ENP,ioos.station.NOAA.NDBC:LBRF1:1,2017-02-10T17:00:00Z,25.4840,-81.1330,1.5,10.1,1111122 
ENP,ioos.station.NOAA.NDBC:LBRF1:1,2017-02-10T18:00:00Z,25.4840,-81.1330,1.5,10.74,1111122 
ENP,ioos.station.NOAA.NDBC:LBRF1:1,2017-02-10T19:00:00Z,25.4840,-81.1330,1.5,12.88,1111122 
ENP,ioos.station.NOAA.NDBC:LBRF1:1,2017-02-10T20:00:00Z,25.4840,-81.1330,1.5,19.65,1111122 
ENP,ioos.station.NOAA.NDBC:LBRF1:1,2017-02-10T21:00:00Z,25.4840,-81.1330,1.5,23.9,11111222 
ENP,ioos.station.NOAA.NDBC:LBRF1:1,2017-02-10T22:00:00Z,25.4840,-81.1330,1.5,20.82,1111122 
ENP,ioos.station.NOAA.NDBC:LBRF1:1,2017-02-10T23:00:00Z,25.4840,-81.1330,1.5,13.74,1111122 
ENP,ioos.station.NOAA.NDBC:LBRF1:1,2017-02-11T00:00:00Z,25.4840,-81.1330,1.5,11.32,1111122 
ENP,ioos.station.NOAA.NDBC:LBRF1:1,2017-02-11T01:00:00Z,25.4840,-81.1330,1.5,10.29,1111122 
ENP,ioos.station.NOAA.NDBC:LBRF1:1,2017-02-11T02:00:00Z,25.4840,-81.1330,1.5,9.7,11111222 
ENP,ioos.station.NOAA.NDBC:LBRF1:1,2017-02-11T03:00:00Z,25.4840,-81.1330,1.5,9.15,1111122 
ENP,ioos.station.NOAA.NDBC:LBRF1:1,2017-02-11T04:00:00Z,25.4840,-81.1330,1.5,9.27,1111122 
ENP,ioos.station.NOAA.NDBC:LBRF1:1,2017-02-11T05:00:00Z,25.4840,-81.1330,1.5,10.42,1111122 
ENP,ioos.station.NOAA.NDBC:LBRF1:1,2017-02-11T06:00:00Z,25.4840,-81.1330,1.5,16.4,11111222 
ENP,ioos.station.NOAA.NDBC:LBRF1:1,2017-02-11T07:00:00Z,25.4840,-81.1330,1.5,22.76,1111122 
ENP,ioos.station.NOAA.NDBC:LBRF1:1,2017-02-11T08:00:00Z,25.4840,-81.1330,1.5,24.72,1111122 
ENP,ioos.station.NOAA.NDBC:LBRF1:1,2017-02-11T09:00:00Z,25.4840,-81.1330,1.5,24.93,1111122 
ENP,ioos.station.NOAA.NDBC:LBRF1:1,2017-02-11T10:00:00Z,25.4840,-81.1330,1.5,23.32,1111122 
ENP,ioos.station.NOAA.NDBC:LBRF1:1,2017-02-11T11:00:00Z,25.4840,-81.1330,1.5,19.6,11111222 
ENP,ioos.station.NOAA.NDBC:LBRF1:1,2017-02-11T12:00:00Z,25.4840,-81.1330,1.5,14.9,11111222 
ENP,ioos.station.NOAA.NDBC:LBRF1:1,2017-02-11T13:00:00Z,25.4840,-81.1330,1.5,11.39,1111122 
ENP,ioos.station.NOAA.NDBC:LBRF1:1,2017-02-11T14:00:00Z,25.4840,-81.1330,1.5,9.59,1111122 
ENP,ioos.station.NOAA.NDBC:LBRF1:1,2017-02-11T15:00:00Z,25.4840,-81.1330,1.5,9.21,1111122 
ENP,ioos.station.NOAA.NDBC:LBRF1:1,2017-02-11T16:00:00Z,25.4840,-81.1330,1.5,8.83,1111122 
ENP,ioos.station.NOAA.NDBC:LBRF1:1,2017-02-11T17:00:00Z,25.4840,-81.1330,1.5,7.47,1111122 
ENP,ioos.station.NOAA.NDBC:LBRF1:1,2017-02-11T18:00:00Z,25.4840,-81.1330,1.5,10.74,1111122 
ENP,ioos.station.NOAA.NDBC:LBRF1:1,2017-02-11T19:00:00Z,25.4840,-81.1330,1.5,19.38,1111122 
ENP,ioos.station.NOAA.NDBC:LBRF1:1,2017-02-11T20:00:00Z,25.4840,-81.1330,1.5,23.53,1111122 
ENP,ioos.station.NOAA.NDBC:LBRF1:1,2017-02-11T21:00:00Z,25.4840,-81.1330,1.5,24.86,1111122 
ENP,ioos.station.NOAA.NDBC:LBRF1:1,2017-02-11T22:00:00Z,25.4840,-81.1330,1.5,24.9,11111222 
ENP,ioos.station.NOAA.NDBC:LBRF1:1,2017-02-11T23:00:00Z,25.4840,-81.1330,1.5,23.67,1111122 
ENP,ioos.station.NOAA.NDBC:LBRF1:1,2017-02-12T00:00:00Z,25.4840,-81.1330,1.5,21.16,1111122 
ENP,ioos.station.NOAA.NDBC:LBRF1:1,2017-02-12T01:00:00Z,25.4840,-81.1330,1.5,17.21,1111122 
ENP,ioos.station.NOAA.NDBC:LBRF1:1,2017-02-12T02:00:00Z,25.4840,-81.1330,1.5,11.71,1111122 
ENP,ioos.station.NOAA.NDBC:LBRF1:1,2017-02-12T03:00:00Z,25.4840,-81.1330,1.5,10.0,11111222 
ENP,ioos.station.NOAA.NDBC:LBRF1:1,2017-02-12T04:00:00Z,25.4840,-81.1330,1.5,9.97,1111122 
ENP,ioos.station.NOAA.NDBC:LBRF1:1,2017-02-12T05:00:00Z,25.4840,-81.1330,1.5,14.1,11111222 
ENP,ioos.station.NOAA.NDBC:LBRF1:1,2017-02-12T06:00:00Z,25.4840,-81.1330,1.5,21.86,1111122 
ENP,ioos.station.NOAA.NDBC:LBRF1:1,2017-02-12T07:00:00Z,25.4840,-81.1330,1.5,25.4,11111222 
ENP,ioos.station.NOAA.NDBC:LBRF1:1,2017-02-12T08:00:00Z,25.4840,-81.1330,1.5,28.7,1111122 
ENP,ioos.station.NOAA.NDBC:LBRF1:1,2017-02-12T09:00:00Z,25.4840,-81.1330,1.5,28.8,11111222 
ENP,ioos.station.NOAA.NDBC:LBRF1:1,2017-02-12T10:00:00Z,25.4840,-81.1330,1.5,28.91,1111122 
ENP,ioos.station.NOAA.NDBC:LBRF1:1,2017-02-12T14:00:00Z,25.4840,-81.1330,1.5,18.6,11111222 
ENP,ioos.station.NOAA.NDBC:LBRF1:1,2017-02-12T15:00:00Z,25.4840,-81.1330,1.5,13.5,11111222 
ENP,ioos.station.NOAA.NDBC:LBRF1:1,2017-02-12T16:00:00Z,25.4840,-81.1330,1.5,11.06,1111122 
ENP,ioos.station.NOAA.NDBC:LBRF1:1,2017-02-12T17:00:00Z,25.4840,-81.1330,1.5,10.29,1111122 